Hourly Weather Roundup
Issued by NWS Central Illinois

Home | Current Version | Previous Version | Text Only | Print | Product List | Glossary On
Versions: 1 2 3 4 5 6 7 8 9 10 11 12 13 14 15 16 17 18 19 20 21 22 23 24 25 26 27 28 29 30 31 32 33 34 35 36 37 38 39 40 41 42 43 44 45 46 47 48 49 50
000
NZUS43 KILX 291010
HWRILX

Area Weather Roundup
National Weather Service Lincoln IL
500 AM CDT MON MAY 29 2017

NOTE:  "FAIR" indicates few or no clouds below 12,000 feet, with
       no sigificant weather and/or obstructions to visibility.


CITY           SKY/WX    TMP DP  RH WIND       PRES   REMARKS
Bloomington    CLEAR     59  52  77 SW9       29.86R
Champaign      CLEAR     60  54  80 SW9       29.86R
Danville       CLEAR     60  54  80 SW9       29.82S
Decatur        CLEAR     63  55  75 W7        29.87R
Effingham      CLEAR     59  58  95 S5        29.92R
Flora          PTCLDY    64  58  80 W7        29.91S
Galesburg      PTCLDY    56  48  72 SW3       29.85S
Jacksonville   CLEAR     60  54  79 SW8       29.88R
Lacon          CLEAR     57  49  76 CALM      29.83R
Lawrenceville  CLOUDY    61  57  87 W5        29.90R
Litchfield     PTCLDY    60  56  87 W6        29.90R
$$


CITY           SKY/WX    TMP DP  RH WIND       PRES   REMARKS
Lincoln        CLEAR     64  53  69 CALM      29.86R
Macomb         CLEAR     56  51  83 W8        29.88S
Mattoon        CLEAR     63  56  78 SW6       29.87R
Mt Carmel AP   CLOUDY    61  56  84 W5        29.91R
Olney-Noble AP CLOUDY    61  61  99 CALM      29.91S
Paris AP       CLEAR     60  55  83 SW12      29.87S
Peoria         PTCLDY    58  50  75 W3        29.85R
Pontiac        CLEAR     59  53  81 CALM      29.83R
Rantoul        CLEAR     64  56  75 W8        29.85R
Robinson       CLEAR     63  56  78 SW10      29.90R
Springfield    CLEAR     62  56  80 SW6       29.88R
Taylorville    CLEAR     61  56  82 W8        29.88S
$$

...REGIONAL REPORTS...


CITY           SKY/WX    TMP DP  RH WIND       PRES   REMARKS
Chicago O`Hare PTCLDY    59  50  72 W8        29.76S
Kankakee       CLEAR     57  51  82 CALM      29.82R
Moline         PTCLDY    57  48  72 W3        29.84R
Mount Sterling CLEAR     58  51  76 W8        29.88R
Mount Vernon     N/A     55  55 100 CALM      29.93R FOG
Pittsfield     CLEAR     62  53  72 W5        29.91R
Quincy         CLEAR     56  52  86 SW7       29.89R
Rockford       CLOUDY    56  51  84 SW6       29.81R
$$


CITY           SKY/WX    TMP DP  RH WIND       PRES   REMARKS
Burlington     PTCLDY    55  50  83 SW6       29.85S
Cedar Rapids   CLOUDY    54  49  83 W8        29.85R
Des Moines     CLOUDY    57  49  74 NW5       29.90R
Kirksville     CLEAR     55  47  74 SW6       29.90F
Ottumwa        MOCLDY    56  49  77 W7        29.86R
St Louis       PTCLDY    64  55  72 W8        29.92R
$$


CITY           SKY/WX    TMP DP  RH WIND       PRES   REMARKS
Terre Haute    PTCLDY    60  54  80 SW7       29.88R
Evansville     CLOUDY    63  61  93 SW6       29.93R
Indianapolis   PTCLDY    57  55  93 SW8       29.87R
Lafayette      PTCLDY    55  54  96 CALM      29.83R
Madison        MOCLDY    57  45  64 VRB5      29.74R
Milwaukee      PTCLDY    58  49  72 SW10      29.73S
$$






USA.gov is the U.S. government's official web portal to all federal, state and local government web resources and services.